Weather History for KMIA - May, 2014

Change the Weather History Date:

Monday, May 12, 2014

  Actual Average Record
Temperature  
Mean Temperature 83 °F 80 °F  
Max Temperature 88 °F 87 °F 94 °F (2008)
Min Temperature 77 °F 72 °F 58 °F (1939)
Degree Days  
Heating Degree Days 0 0  
Month to date heating degree days 0 0  
Since 1 July heating degree days 61 128  
Cooling Degree Days 18 14  
Month to date cooling degree days 196 163  
Year to date cooling degree days 1277 1056  
Growing Degree Days 32 (Base 50)    
Moisture  
Dew Point 68 °F    
Average Humidity 59    
Maximum Humidity 71    
Minimum Humidity 46    
Precipitation  
Precipitation T in 0.13 in 2.72 in (1943)
Month to date precipitation 0.29 1.43  
Year to date precipitation 7.15 11.44  
Snow  
Snow 0.00 in - - ()
Month to date snowfall 0.0  
Since 1 July snowfall 0.0  
Snow Depth 0.00 in    
Sea Level Pressure  
Sea Level Pressure 30.08 in    
Wind  
Wind Speed 15 mph (East)    
Max Wind Speed 22 mph    
Max Gust Speed 27 mph    
Visibility 10 miles    
Events      
T = Trace of Precipitation, MM = Missing Value Source: NWS Daily Summary

Daily Weather History Graph

Daily Weather History Graph

Search for Another Location

Airport or City:

Trip Planner

Search our weather history database for the weather conditions in past years. The results will help you decide how hot, cold, wet, or windy it might be!

Date:

Astronomy

May. 12, 2014 Rise Set
Actual Time 6:37 AM EDT 7:58 PM EDT
Civil Twilight 6:12 AM EDT 8:23 PM EDT
Nautical Twilight 5:42 AM EDT 8:52 PM EDT
Astronomical Twilight 5:12 AM EDT 9:23 PM EDT
Moon 6:06 PM EDT (5/12) 5:00 AM EDT (5/12)
Length of Visible Light 14h 10m
Length of Day
13h 21m
Waxing Gibbous, 95% of the Moon is Illuminated
May 12
Waxing Gibbous
May 14
Full
May 21
Last Quarter
May 28
New
Jun 5
First Quarter

Hourly Weather History & Observations

Time (EDT) Temp. Heat Index Dew Point Humidity Pressure Visibility Wind Dir Wind Speed Gust Speed Precip Events Conditions
12:53 AM 78.1 °F - 66.0 °F 66% 30.10 in 10.0 mi East 12.7 mph - N/A   Scattered Clouds
1:53 AM 78.1 °F - 66.9 °F 68% 30.08 in 10.0 mi East 11.5 mph - N/A   Scattered Clouds
2:53 AM 77.0 °F - 66.0 °F 69% 30.06 in 10.0 mi East 10.4 mph - N/A   Mostly Cloudy
3:53 AM 78.1 °F - 66.9 °F 68% 30.06 in 10.0 mi East 13.8 mph - N/A   Mostly Cloudy
4:53 AM 78.1 °F - 68.0 °F 71% 30.06 in 10.0 mi East 11.5 mph - N/A   Scattered Clouds
5:53 AM 78.1 °F - 68.0 °F 71% 30.06 in 10.0 mi East 10.4 mph - N/A   Mostly Cloudy
6:53 AM 78.1 °F - 68.0 °F 71% 30.06 in 10.0 mi East 13.8 mph - N/A   Mostly Cloudy
7:53 AM 80.1 °F 82.7 °F 68.0 °F 67% 30.09 in 10.0 mi East 17.3 mph - 0.00 in   Mostly Cloudy
8:53 AM 81.0 °F 83.3 °F 66.9 °F 62% 30.10 in 10.0 mi ESE 18.4 mph - N/A   Mostly Cloudy
9:53 AM 82.4 °F 85.4 °F 68.0 °F 62% 30.11 in 10.0 mi East 12.7 mph - N/A   Mostly Cloudy
10:53 AM 84.9 °F 87.1 °F 66.0 °F 53% 30.12 in 10.0 mi East 18.4 mph 24.2 mph N/A   Mostly Cloudy
11:53 AM 84.9 °F 87.1 °F 66.0 °F 53% 30.12 in 10.0 mi ENE 12.7 mph - N/A   Mostly Cloudy
12:53 PM 87.1 °F 90.6 °F 68.0 °F 53% 30.11 in 10.0 mi East 15.0 mph 23.0 mph N/A   Mostly Cloudy
1:53 PM 88.0 °F 89.6 °F 64.9 °F 46% 30.10 in 10.0 mi East 17.3 mph 24.2 mph N/A   Scattered Clouds
2:53 PM 86.0 °F 88.8 °F 66.9 °F 53% 30.08 in 10.0 mi East 18.4 mph 21.9 mph N/A   Mostly Cloudy
3:53 PM 84.9 °F 88.8 °F 69.1 °F 59% 30.07 in 10.0 mi ENE 16.1 mph 24.2 mph N/A   Mostly Cloudy
4:53 PM 84.0 °F 87.0 °F 68.0 °F 58% 30.06 in 10.0 mi ENE 16.1 mph 24.2 mph N/A   Mostly Cloudy
5:53 PM 84.0 °F 87.8 °F 69.1 °F 61% 30.05 in 10.0 mi ENE 18.4 mph 27.6 mph N/A   Mostly Cloudy
6:53 PM 82.0 °F 85.5 °F 69.1 °F 65% 30.06 in 10.0 mi ENE 15.0 mph 23.0 mph N/A   Mostly Cloudy
7:01 PM 82.0 °F 85.9 °F 70.0 °F 67% 30.05 in 10.0 mi ENE 12.7 mph - N/A   Mostly Cloudy
7:53 PM 81.0 °F 84.1 °F 69.1 °F 67% 30.05 in 10.0 mi ENE 17.3 mph 25.3 mph N/A   Scattered Clouds
8:53 PM 80.1 °F 83.2 °F 70.0 °F 71% 30.06 in 10.0 mi ENE 11.5 mph 23.0 mph N/A   Partly Cloudy
9:53 PM 80.1 °F 82.9 °F 69.1 °F 69% 30.07 in 10.0 mi East 18.4 mph 26.5 mph N/A   Partly Cloudy
10:47 PM 80.6 °F 84.6 °F 71.6 °F 74% 30.06 in 10.0 mi East 15.0 mph 25.3 mph N/A   Mostly Cloudy
10:53 PM 80.6 °F 83.9 °F 69.8 °F 70% 30.06 in 10.0 mi East 15.0 mph - N/A   Mostly Cloudy
11:00 PM 80.1 °F 83.2 °F 70.0 °F 71% 30.06 in 10.0 mi East 15.0 mph 26.5 mph N/A   Scattered Clouds
11:53 PM 80.1 °F 83.2 °F 70.0 °F 71% 30.06 in 10.0 mi East 18.4 mph 23.0 mph N/A   Mostly Cloudy